KA8DUX-2 Weather Reports


Display with metric or nautical units.
time (UTC)temp
F
wind
direction
speed
MPH
gust
MPH
rain 1hr
in
rain 24hr
in
rain mn
in
humidity
%
barometer
mb
20260901062815 72 140 0.0 0.0 0.00 0.00 0.00 99 1012.4
20260901062311 72 140 0.0 0.0 0.00 0.00 0.00 99 1012.5
20260901061806 72 139 0.0 0.0 0.00 0.00 0.00 99 1012.3
20260901061301 72 160 0.0 0.0 0.00 0.00 0.00 99 1012.4
20260901060756 72 144 0.0 0.0 0.00 0.00 0.00 99 1012.4
20260901060252 72 157 0.0 0.0 0.00 0.00 0.00 99 1012.5
20260901055746 72 154 0.0 0.0 0.00 0.00 0.00 99 1012.8
20260901055243 72 143 0.0 0.0 0.00 0.00 0.00 99 1012.4
20260901054740 72 151 0.0 0.0 0.00 0.00 0.00 99 1012.5
20260901054236 72 136 0.0 0.0 0.00 0.00 0.00 99 1012.7
20260901053732 72 150 0.0 0.0 0.00 0.00 0.00 99 1012.7
20260901053227 72 143 0.0 0.0 0.00 0.00 0.00 99 1012.7
20260901052722 72 145 0.0 0.0 0.00 0.00 0.00 99 1012.6
20260901052218 72 147 0.0 0.0 0.00 0.00 0.00 99 1012.7
20260901051716 72 152 0.0 0.0 0.00 0.00 0.00 99 1012.6
20260901051211 72 136 0.0 0.0 0.00 0.00 0.00 99 1012.6
20260901050707 72 136 0.0 0.0 0.00 0.00 0.00 99 1012.5
20260901050201 72 137 0.0 0.0 0.00 0.00 0.00 99 1012.7
20260901045656 72 139 0.0 0.0 0.00 0.00 0.00 99 1012.7
20260901045151 72 140 0.0 0.0 0.00 0.00 0.00 99 1012.7
20260901044646 72 138 0.0 0.0 0.00 0.00 0.00 99 1012.8
20260901044143 72 136 0.0 0.0 0.00 0.00 0.00 99 1012.5
20260901043638 72 132 0.0 0.0 0.00 0.00 0.00 99 1012.6
20260901043134 72 133 0.0 0.0 0.00 0.00 0.00 99 1012.7
20260901042633 72 137 0.0 0.0 0.00 0.00 0.00 99 1012.6
20260901042128 73 134 0.0 0.0 0.00 0.00 0.00 99 1012.7
20260901041624 73 133 0.0 0.0 0.00 0.00 0.00 99 1012.7
20260901041119 73 133 0.0 0.0 0.00 0.00 0.00 99 1012.9
20260901040618 73 133 0.0 0.0 0.00 0.00 0.00 98 1012.9
20260901040112 73 132 0.0 0.0 0.00 0.24 0.24 98 1012.8
20260901035610 73 132 0.0 0.0 0.00 0.24 0.24 98 1012.7
20260901035109 73 132 0.0 0.0 0.00 0.24 0.24 97 1013.0
20260901034609 74 133 0.0 0.0 0.00 0.24 0.24 97 1013.0
20260901034104 74 132 0.0 0.0 0.00 0.24 0.24 97 1012.8
20260901033603 74 127 0.0 0.0 0.00 0.24 0.24 97 1012.7
20260901033057 74 134 0.0 0.0 0.00 0.24 0.24 96 1012.8
20260901032556 74 138 0.0 0.0 0.00 0.24 0.24 96 1012.9
20260901032051 75 135 0.0 0.0 0.00 0.24 0.24 96 1012.9
20260901031546 75 146 0.0 0.0 0.00 0.24 0.24 96 1012.8
20260901031043 75 136 0.0 0.0 0.00 0.24 0.24 96 1012.9
20260901030542 75 138 0.0 0.0 0.00 0.24 0.24 96 1012.7
20260901030037 75 139 0.0 0.0 0.00 0.24 0.24 96 1012.6
20260901025536 75 138 0.0 0.0 0.00 0.24 0.24 95 1012.6
20260901025031 75 140 0.0 0.0 0.00 0.24 0.24 95 1012.8
20260901024526 75 142 0.0 0.0 0.00 0.24 0.24 95 1012.6
20260901024025 75 138 0.0 0.0 0.00 0.24 0.24 95 1012.4
20260901023519 75 135 0.0 0.0 0.00 0.24 0.24 95 1012.6
20260901023014 75 142 0.0 0.0 0.00 0.24 0.24 95 1012.7
20260901022509 75 139 0.0 0.0 0.00 0.24 0.24 94 1012.7
20260901022004 75 134 0.0 0.0 0.00 0.24 0.24 94 1012.6
20260901021500 75 140 0.0 0.0 0.00 0.24 0.24 95 1012.6
20260901020955 75 138 0.0 0.0 0.00 0.24 0.24 95 1012.6
20260901020450 75 133 0.0 0.0 0.00 0.24 0.24 96 1012.5
20260901015949 74 148 0.0 0.0 0.00 0.24 0.24 96 1012.8
20260901015446 74 156 0.0 0.0 0.00 0.24 0.24 96 1012.6
20260901014945 74 140 0.0 0.0 0.00 0.24 0.24 96 1012.9
20260901014441 74 164 0.0 0.0 0.00 0.24 0.24 97 1012.8
20260901013937 74 131 0.0 0.0 0.00 0.24 0.24 96 1012.7
20260901013432 74 134 0.0 0.0 0.00 0.24 0.24 96 1012.6
20260901012928 74 127 0.0 0.0 0.00 0.24 0.24 96 1012.7
20260901012422 74 131 0.0 0.0 0.00 0.24 0.24 96 1012.7
20260901011918 74 133 0.0 0.0 0.00 0.24 0.24 95 1012.9
20260901011414 75 128 0.0 0.0 0.00 0.24 0.24 95 1012.7
20260901010912 75 135 0.0 0.0 0.00 0.24 0.24 95 1012.7
20260901010407 75 127 0.0 0.0 0.00 0.24 0.24 94 1012.5
20260901005906 75 126 0.0 0.0 0.00 0.24 0.24 93 1012.5
20260901005401 76 127 0.0 0.0 0.00 0.24 0.24 93 1012.7
20260901004856 76 134 0.0 0.0 0.00 0.24 0.24 92 1012.5
20260901004355 77 131 0.0 0.0 0.00 0.24 0.24 91 1012.5
20260901003850 77 134 0.0 0.0 0.00 0.24 0.24 90 1012.4
20260901003345 77 141 0.0 0.0 0.00 0.24 0.24 89 1012.5
20260901002844 77 133 0.0 0.0 0.00 0.24 0.24 89 1012.4
20260901002343 77 159 0.0 0.0 0.00 0.24 0.24 88 1012.7
20260901001838 78 134 0.0 0.0 0.00 0.24 0.24 88 1012.5
20260901001333 78 134 0.0 1.0 0.00 0.24 0.24 88 1012.4
20260901000829 78 222 0.0 2.0 0.00 0.24 0.24 87 1012.3
20260901000324 78 149 0.0 0.0 0.00 0.24 0.24 87 1012.3
20260831235822 79 131 0.0 0.0 0.00 0.24 0.24 85 1012.2
20260831235319 79 136 0.0 0.0 0.00 0.24 0.24 85 1012.0
20260831234813 79 159 0.0 1.0 0.00 0.24 0.24 84 1011.8
20260831234313 79 141 0.0 0.0 0.00 0.24 0.24 84 1011.9
20260831233809 79 179 1.0 1.0 0.00 0.24 0.24 84 1012.0
20260831233304 79 121 1.0 2.0 0.00 0.24 0.24 84 1011.9
20260831232759 80 140 0.0 1.0 0.00 0.24 0.24 84 1012.0
20260831232255 80 151 0.0 0.0 0.00 0.24 0.24 84 1012.1
20260831231751 79 176 2.0 2.0 0.00 0.24 0.24 83 1012.2
20260831231247 79 174 0.0 1.0 0.00 0.24 0.24 85 1012.1
20260831230742 79 165 1.0 1.0 0.00 0.24 0.24 84 1012.1
20260831230237 79 161 0.0 1.0 0.00 0.24 0.24 84 1011.9
20260831225736 79 220 2.0 3.0 0.00 0.24 0.24 84 1011.9
20260831225232 79 144 0.0 0.0 0.00 0.24 0.24 85 1011.7
20260831224726 79 165 0.0 1.0 0.00 0.24 0.24 86 1011.8
20260831224222 79 168 1.0 1.0 0.00 0.24 0.24 86 1011.6
20260831223717 79 143 0.0 1.0 0.00 0.24 0.24 87 1011.6
20260831223214 80 245 1.0 3.0 0.00 0.24 0.24 87 1011.7
20260831222709 80 130 0.0 0.0 0.00 0.24 0.24 86 1011.8
20260831222205 80 137 0.0 0.0 0.00 0.24 0.24 86 1011.6
20260831221700 80 194 1.0 3.0 0.00 0.24 0.24 86 1011.6
20260831221155 80 164 0.0 1.0 0.00 0.24 0.24 85 1011.8
20260831220650 81 138 0.0 1.0 0.00 0.24 0.24 86 1011.7
20260831220145 81 131 3.0 3.0 0.00 0.24 0.24 86 1011.8
20260831215640 81 154 1.0 2.0 0.00 0.24 0.24 86 1011.9
20260831215136 81 130 0.0 0.0 0.00 0.24 0.24 87 1011.9
20260831214633 80 139 0.0 0.0 0.00 0.24 0.24 90 1012.2
20260831214130 80 199 1.0 1.0 0.00 0.24 0.24 89 1012.1
20260831213626 79 134 0.0 0.0 0.00 0.24 0.24 88 1012.1
20260831213121 80 128 0.0 0.0 0.00 0.24 0.24 91 1011.8
20260831212617 79 208 0.0 0.0 0.00 0.24 0.24 92 1011.7
20260831212113 78 166 1.0 2.0 0.00 0.24 0.24 94 1011.7
20260831211612 77 136 0.0 0.0 0.00 0.24 0.24 95 1011.6
20260831211112 76 138 0.0 1.0 0.00 0.24 0.24 97 1011.6
20260831210607 75 139 2.0 2.0 0.00 0.24 0.24 99 1011.6
20260831210103 74 135 0.0 0.0 0.00 0.24 0.24 99 1011.7
20260831205602 74 130 0.0 0.0 0.00 0.24 0.24 99 1012.1
20260831205059 73 131 0.0 0.0 0.00 0.24 0.24 99 1011.9
20260831204553 73 139 1.0 2.0 0.00 0.24 0.24 99 1012.1
20260831204051 73 137 0.0 0.0 0.00 0.24 0.24 99 1012.2
20260831203546 73 132 0.0 0.0 0.00 0.24 0.24 99 1012.3
20260831203046 73 123 0.0 0.0 0.00 0.24 0.24 99 1012.0
20260831202544 73 133 0.0 0.0 0.07 0.24 0.24 98 1012.1
20260831202039 73 131 0.0 0.0 0.07 0.24 0.24 98 1012.1
20260831201538 73 136 0.0 0.0 0.00 0.23 0.23 99 1012.1
20260831201033 73 131 0.0 0.0 0.00 0.23 0.23 99 1012.0
20260831200529 73 130 0.0 0.0 0.00 0.23 0.23 99 1012.0
20260831200024 72 143 0.0 0.0 0.05 0.23 0.23 99 1011.9
20260831195519 72 110 0.0 0.0 0.05 0.23 0.23 99 1011.7
20260831195020 71 115 0.0 0.0 0.24 0.22 0.22 98 1012.2
20260831194514 72 130 0.0 0.0 0.24 0.22 0.22 98 1012.5
20260831194009 73 131 0.0 0.0 0.19 0.20 0.20 98 1012.0
20260831193504 72 136 0.0 0.0 0.54 0.18 0.18 97 1013.2
20260831192959 73 103 1.0 1.0 0.47 0.17 0.17 96 1012.8
20260831192454 74 130 0.0 0.0 0.00 0.09 0.09 94 1013.0
20260831191948 74 132 0.0 0.0 0.00 0.09 0.09 94 1012.7
20260831191445 73 134 0.0 0.0 0.00 0.09 0.09 93 1012.8
20260831190941 73 124 1.0 1.0 0.00 0.09 0.09 94 1012.6
20260831190436 73 123 1.0 1.0 0.07 0.09 0.09 96 1012.8
20260831185935 73 144 1.0 1.0 0.12 0.09 0.09 97 1013.2
20260831185431 74 107 0.0 2.0 0.24 0.08 0.08 96 1013.2
20260831184930 75 125 0.0 0.0 0.24 0.08 0.08 94 1014.2
20260831184425 76 126 0.0 0.0 0.24 0.04 0.04 91 1014.0
20260831183920 78 127 0.0 0.0 0.24 0.04 0.04 87 1013.8
20260831183420 79 154 1.0 1.0 0.00 0.00 0.00 80 1013.6
20260831182914 79 105 1.0 1.0 0.00 0.00 0.00 79 1013.7
20260831182409 80 126 0.0 0.0 0.00 0.00 0.00 78 1013.3
20260831181904 80 109 1.0 3.0 0.00 0.00 0.00 76 1013.0
20260831181400 80 119 0.0 1.0 0.00 0.00 0.00 76 1012.8
20260831180854 80 166 0.0 1.0 0.00 0.00 0.00 75 1013.0
20260831180349 81 153 0.0 0.0 0.00 0.00 0.00 74 1013.4
20260831175848 82 237 1.0 2.0 0.00 0.00 0.00 73 1013.2
20260831175344 82 122 1.0 2.0 0.00 0.00 0.00 72 1013.2
20260831174841 82 209 3.0 3.0 0.00 0.00 0.00 71 1013.4
20260831174336 83 218 4.0 6.0 0.00 0.00 0.00 71 1013.4
20260831173834 83 129 0.0 0.0 0.00 0.00 0.00 73 1013.4
20260831173329 83 250 0.0 1.0 0.00 0.00 0.00 73 1013.6
20260831172824 81 125 1.0 2.0 0.00 0.00 0.00 75 1013.8
20260831172319 81 197 2.0 2.0 0.00 0.00 0.00 76 1013.7
20260831171819 80 126 1.0 2.0 0.00 0.00 0.00 79 1013.4
20260831171316 80 122 4.0 7.0 0.00 0.00 0.00 77 1013.3
20260831170812 80 150 2.0 3.0 0.00 0.00 0.00 79 1013.3
20260831170308 79 158 2.0 2.0 0.00 0.00 0.00 80 1013.5
20260831165804 78 172 2.0 3.0 0.00 0.00 0.00 81 1013.6
20260831165301 78 115 1.0 1.0 0.00 0.00 0.00 81 1013.8
20260831164756 78 140 1.0 1.0 0.00 0.00 0.00 83 1014.1
20260831164253 77 147 0.0 0.0 0.00 0.00 0.00 84 1013.9
20260831163748 77 129 1.0 2.0 0.00 0.00 0.00 85 1014.1
20260831163243 77 125 1.0 1.0 0.00 0.00 0.00 85 1013.9
20260831162742 76 154 0.0 1.0 0.00 0.00 0.00 87 1014.0
20260831162236 76 119 0.0 1.0 0.00 0.00 0.00 87 1014.3
20260831161730 76 142 0.0 1.0 0.00 0.00 0.00 88 1014.2
20260831161227 75 155 0.0 1.0 0.00 0.00 0.00 89 1014.3
20260831160727 75 132 0.0 1.0 0.00 0.00 0.00 90 1014.1
20260831160222 75 143 1.0 1.0 0.00 0.00 0.00 89 1014.4
20260831155721 74 159 1.0 1.0 0.00 0.00 0.00 91 1014.5
20260831155217 74 195 1.0 1.0 0.00 0.00 0.00 91 1014.3
20260831154713 73 190 2.0 2.0 0.00 0.00 0.00 92 1014.5
20260831154209 73 134 0.0 0.0 0.00 0.00 0.00 92 1014.5
20260831153707 73 134 0.0 1.0 0.00 0.00 0.00 92 1014.5
20260831153203 73 151 1.0 1.0 0.00 0.00 0.00 92 1014.6
20260831152659 73 141 0.0 1.0 0.00 0.00 0.00 92 1014.6
20260831152155 73 163 1.0 2.0 0.00 0.00 0.00 91 1014.8
20260831151654 73 171 2.0 2.0 0.00 0.00 0.00 92 1014.7
20260831151149 73 144 1.0 2.0 0.00 0.00 0.00 93 1014.9
20260831150644 72 162 1.0 2.0 0.00 0.00 0.00 94 1014.4
20260831150139 72 137 0.0 1.0 0.00 0.00 0.00 94 1014.9
20260831145633 72 132 0.0 1.0 0.00 0.00 0.00 94 1014.7
20260831145129 73 131 0.0 0.0 0.00 0.00 0.00 93 1015.3
20260831144625 74 130 0.0 0.0 0.00 0.00 0.00 91 1015.4
20260831144121 74 130 0.0 0.0 0.00 0.00 0.00 90 1015.4
20260831143620 74 130 0.0 0.0 0.00 0.00 0.00 89 1015.3
20260831143115 74 126 0.0 0.0 0.00 0.00 0.00 89 1015.0
20260831142612 73 153 0.0 1.0 0.00 0.00 0.00 88 1015.3
20260831142107 74 134 0.0 1.0 0.00 0.00 0.00 89 1014.3
20260831141606 73 134 1.0 2.0 0.00 0.00 0.00 89 1014.8
20260831141101 73 136 0.0 0.0 0.00 0.00 0.00 91 1014.8
20260831140601 73 128 0.0 0.0 0.00 0.00 0.00 91 1014.9
20260831140055 73 135 0.0 0.0 0.00 0.00 0.00 91 1014.8
20260831135553 73 129 0.0 0.0 0.00 0.00 0.00 91 1014.8
20260831135049 73 128 0.0 0.0 0.00 0.00 0.00 90 1014.7
20260831134544 73 129 0.0 0.0 0.00 0.00 0.00 90 1014.8
20260831134039 74 129 0.0 0.0 0.00 0.00 0.00 91 1014.7
20260831133539 74 135 0.0 0.0 0.00 0.00 0.00 90 1014.9
20260831133034 73 148 0.0 0.0 0.00 0.00 0.00 89 1014.6
20260831132530 74 127 1.0 1.0 0.00 0.00 0.00 88 1014.9
20260831132028 74 139 0.0 0.0 0.00 0.00 0.00 88 1014.5
20260831131523 74 173 2.0 2.0 0.00 0.00 0.00 86 1014.7
20260831131020 75 195 2.0 3.0 0.00 0.00 0.00 86 1014.6
20260831130519 75 211 2.0 2.0 0.00 0.00 0.00 85 1014.7
20260831130016 75 213 1.0 1.0 0.00 0.00 0.00 85 1014.4
20260831125509 75 165 3.0 3.0 0.00 0.00 0.00 85 1014.6
20260831125005 74 199 1.0 2.0 0.00 0.00 0.00 86 1014.6
20260831124501 74 142 2.0 2.0 0.00 0.00 0.00 87 1014.4
20260831123956 74 156 0.0 0.0 0.00 0.00 0.00 88 1014.6
20260831123455 73 226 1.0 1.0 0.00 0.00 0.00 89 1014.6
20260831122949 73 162 1.0 2.0 0.00 0.00 0.00 89 1014.4
20260831122445 73 151 1.0 2.0 0.00 0.00 0.00 88 1014.4
20260831121940 73 193 1.0 2.0 0.00 0.00 0.00 88 1014.5
20260831121436 73 226 1.0 3.0 0.00 0.00 0.00 88 1014.2
20260831120931 73 198 1.0 2.0 0.00 0.00 0.00 88 1014.2
20260831120426 73 143 1.0 2.0 0.00 0.00 0.00 88 1014.0
20260831115926 73 184 1.0 2.0 0.00 0.00 0.00 89 1014.0
20260831115422 72 157 0.0 0.0 0.00 0.00 0.00 90 1014.0
20260831114922 72 140 0.0 0.0 0.00 0.00 0.00 90 1014.2
20260831114421 72 140 0.0 1.0 0.00 0.00 0.00 90 1014.1
20260831113917 72 190 1.0 2.0 0.00 0.00 0.00 91 1014.2
20260831113416 71 128 0.0 0.0 0.00 0.00 0.00 92 1013.8
20260831112911 71 128 0.0 1.0 0.00 0.00 0.00 93 1013.7
20260831112411 70 134 0.0 0.0 0.00 0.00 0.00 96 1013.5
20260831111907 69 125 0.0 0.0 0.00 0.00 0.00 97 1013.9
20260831111403 69 127 0.0 0.0 0.00 0.00 0.00 98 1013.7
20260831110858 69 129 0.0 0.0 0.00 0.00 0.00 98 1013.8
20260831110353 69 125 0.0 0.0 0.00 0.00 0.00 98 1013.9
20260831105851 69 119 0.0 0.0 0.00 0.00 0.00 98 1013.9
20260831105347 69 129 0.0 0.0 0.00 0.00 0.00 98 1013.8
20260831104842 69 122 0.0 0.0 0.00 0.00 0.00 98 1014.0
20260831104333 69 128 0.0 0.0 0.00 0.00 0.00 98 1013.6
20260831103833 69 127 0.0 0.0 0.00 0.00 0.00 98 1013.8
20260831103328 69 127 0.0 0.0 0.00 0.00 0.00 98 1014.0
20260831102823 69 132 0.0 0.0 0.00 0.00 0.00 98 1014.0
20260831102318 69 127 0.0 0.0 0.00 0.00 0.00 98 1013.9
20260831101814 69 131 0.0 0.0 0.00 0.00 0.00 98 1014.1
20260831101309 69 124 0.0 0.0 0.00 0.00 0.00 98 1014.2
20260831100805 69 122 0.0 0.0 0.00 0.00 0.00 97 1014.2
20260831100301 69 128 0.0 0.0 0.00 0.00 0.00 97 1014.1
20260831095800 69 126 0.0 0.0 0.00 0.00 0.00 97 1014.3
20260831095254 69 126 0.0 0.0 0.00 0.00 0.00 97 1014.3
20260831094749 69 129 0.0 0.0 0.00 0.00 0.00 97 1014.3
20260831094245 69 128 0.0 0.0 0.00 0.00 0.00 97 1014.1
20260831093741 69 124 0.0 0.0 0.00 0.00 0.00 97 1014.3
20260831093241 69 120 0.0 0.0 0.00 0.00 0.00 97 1014.5
20260831092737 69 111 0.0 0.0 0.00 0.00 0.00 97 1014.2
20260831092233 69 126 0.0 0.0 0.00 0.00 0.00 97 1014.4
20260831091732 69 128 0.0 0.0 0.00 0.00 0.00 98 1014.5
20260831091228 69 128 0.0 0.0 0.00 0.00 0.00 98 1014.4
20260831090723 69 171 0.0 0.0 0.00 0.00 0.00 98 1014.4
20260831090220 68 127 0.0 0.0 0.00 0.00 0.00 98 1014.1
20260831085715 68 129 0.0 0.0 0.00 0.00 0.00 98 1014.2
20260831085210 68 133 0.0 0.0 0.00 0.00 0.00 98 1014.3
20260831084705 68 127 0.0 0.0 0.00 0.00 0.00 98 1014.5
20260831084201 68 129 0.0 0.0 0.00 0.00 0.00 98 1014.4
20260831083657 68 125 0.0 0.0 0.00 0.00 0.00 98 1014.1
20260831083153 68 131 0.0 0.0 0.00 0.00 0.00 98 1014.3
20260831082650 68 124 0.0 0.0 0.00 0.00 0.00 98 1014.5
20260831082146 68 129 0.0 0.0 0.00 0.00 0.00 98 1013.9
20260831081641 69 129 0.0 0.0 0.00 0.00 0.00 98 1014.2
20260831081137 69 133 0.0 0.0 0.00 0.00 0.00 97 1014.2
20260831080633 69 124 0.0 0.0 0.00 0.00 0.00 97 1014.4
20260831080127 69 125 0.0 0.0 0.00 0.00 0.00 97 1014.2
20260831075623 69 125 0.0 0.0 0.00 0.00 0.00 97 1014.4
20260831075119 69 131 0.0 0.0 0.00 0.00 0.00 97 1014.3
20260831074618 69 123 0.0 0.0 0.00 0.00 0.00 97 1014.3
20260831074113 69 127 0.0 0.0 0.00 0.00 0.00 97 1014.4
20260831073608 69 128 0.0 0.0 0.00 0.00 0.00 96 1014.3
20260831073107 69 150 0.0 1.0 0.00 0.00 0.00 96 1014.5
20260831072602 69 128 0.0 0.0 0.00 0.00 0.00 96 1014.4
20260831072100 69 126 0.0 0.0 0.00 0.00 0.00 96 1014.4
20260831071557 69 128 0.0 0.0 0.00 0.00 0.00 96 1014.5
20260831071053 69 131 0.0 0.0 0.00 0.00 0.00 96 1014.6
20260831070552 69 131 0.0 0.0 0.00 0.00 0.00 95 1014.6
20260831070047 69 131 0.0 0.0 0.00 0.00 0.00 95 1014.7
20260831065544 69 132 0.0 0.0 0.00 0.00 0.00 95 1014.6
20260831065039 69 124 0.0 0.0 0.00 0.00 0.00 95 1014.6
20260831064534 69 152 0.0 0.0 0.00 0.00 0.00 95 1014.3
20260831064030 69 128 0.0 0.0 0.00 0.00 0.00 95 1014.2
20260831063525 69 121 0.0 0.0 0.00 0.00 0.00 95 1014.0